Time,TemperatureF,DewpointF,PressureIn,WindDirection,WindDirectionDegrees,WindSpeedMPH,WindSpeedGustMPH,Humidity,HourlyPrecipIn,Conditions,Clouds,dailyrainin,SolarRadiationWatts/m^2,SoftwareType,DateUTC
2013-02-05 00:00:00,30.8,23.2,29.94,East,97,0.0,0.0,73,0.00,,,0.00,0,Wunderground v.1.15,2013-02-05 05:00:00,
2013-02-05 00:02:00,30.8,23.2,29.94,East,97,0.0,0.0,73,0.00,,,0.00,0,Wunderground v.1.15,2013-02-05 05:02:00,
2013-02-05 00:08:00,30.9,23.6,29.93,East,97,0.0,0.0,74,0.00,,,0.00,0,Wunderground v.1.15,2013-02-05 05:08:00,
2013-02-05 00:10:00,30.9,23.6,29.93,East,97,0.0,0.0,74,0.00,,,0.00,0,Wunderground v.1.15,2013-02-05 05:10:00,
2013-02-05 00:12:00,30.9,23.6,29.93,East,97,0.0,1.0,74,0.00,,,0.00,0,Wunderground v.1.15,2013-02-05 05:12:00,
2013-02-05 00:18:00,30.9,23.6,29.93,East,97,0.0,1.0,74,0.00,,,0.00,0,Wunderground v.1.15,2013-02-05 05:18:00,
2013-02-05 00:24:00,30.9,23.9,29.92,East,97,0.0,0.0,75,0.00,,,0.00,0,Wunderground v.1.15,2013-02-05 05:24:00,
2013-02-05 00:30:00,31.0,24.0,29.92,East,97,0.0,0.0,75,0.00,,,0.00,0,Wunderground v.1.15,2013-02-05 05:30:00,
2013-02-05 00:36:00,31.0,24.3,29.91,East,97,0.0,0.0,76,0.00,,,0.00,0,Wunderground v.1.15,2013-02-05 05:36:00,
2013-02-05 00:42:00,31.1,24.4,29.91,East,97,0.0,0.0,76,0.00,,,0.00,0,Wunderground v.1.15,2013-02-05 05:42:00,
2013-02-05 00:48:00,31.1,24.4,29.91,East,97,0.0,0.0,76,0.00,,,0.00,0,Wunderground v.1.15,2013-02-05 05:48:00,
2013-02-05 00:54:00,31.1,24.4,29.91,East,97,0.0,0.0,76,0.00,,,0.00,0,Wunderground v.1.15,2013-02-05 05:54:00,
2013-02-05 01:00:00,31.1,24.7,29.91,East,97,0.0,0.0,77,0.00,,,0.00,0,Wunderground v.1.15,2013-02-05 06:00:00,
2013-02-05 01:06:00,31.2,25.1,29.91,East,97,0.0,0.0,78,0.00,,,0.00,0,Wunderground v.1.15,2013-02-05 06:06:00,
2013-02-05 01:12:00,31.2,25.1,29.91,East,97,0.0,0.0,78,0.00,,,0.00,0,Wunderground v.1.15,2013-02-05 06:12:00,
2013-02-05 01:18:00,31.2,25.1,29.90,East,97,0.0,0.0,78,0.00,,,0.00,0,Wunderground v.1.15,2013-02-05 06:18:00,
2013-02-05 01:24:00,31.3,25.5,29.91,East,97,0.0,0.0,79,0.00,,,0.00,0,Wunderground v.1.15,2013-02-05 06:24:00,
2013-02-05 01:30:00,31.3,25.5,29.90,East,97,0.0,0.0,79,0.00,,,0.00,0,Wunderground v.1.15,2013-02-05 06:30:00,
2013-02-05 01:36:00,31.3,25.5,29.91,East,97,0.0,0.0,79,0.00,,,0.00,0,Wunderground v.1.15,2013-02-05 06:36:00,
2013-02-05 01:42:00,31.3,25.5,29.91,East,97,0.0,0.0,79,0.00,,,0.00,0,Wunderground v.1.15,2013-02-05 06:42:00,
2013-02-05 01:48:00,31.3,25.5,29.91,East,97,0.0,0.0,79,0.00,,,0.00,0,Wunderground v.1.15,2013-02-05 06:48:00,
2013-02-05 01:54:00,31.4,25.6,29.90,East,97,0.0,0.0,79,0.00,,,0.00,0,Wunderground v.1.15,2013-02-05 06:54:00,
2013-02-05 02:00:00,31.4,25.6,29.90,East,97,0.0,0.0,79,0.00,,,0.00,0,Wunderground v.1.15,2013-02-05 07:00:00,
2013-02-05 02:06:00,31.5,25.7,29.90,East,97,0.0,0.0,79,0.00,,,0.00,0,Wunderground v.1.15,2013-02-05 07:06:00,
2013-02-05 02:12:00,31.5,25.7,29.90,East,97,0.0,0.0,79,0.00,,,0.00,0,Wunderground v.1.15,2013-02-05 07:12:00,
2013-02-05 02:18:00,31.5,25.7,29.90,East,97,0.0,0.0,79,0.00,,,0.00,0,Wunderground v.1.15,2013-02-05 07:18:00,
2013-02-05 02:24:00,31.6,26.1,29.90,East,97,0.0,0.0,80,0.00,,,0.00,0,Wunderground v.1.15,2013-02-05 07:24:00,
2013-02-05 02:30:00,31.6,26.1,29.90,East,97,0.0,0.0,80,0.00,,,0.00,0,Wunderground v.1.15,2013-02-05 07:30:00,
2013-02-05 02:36:00,31.7,26.2,29.90,East,97,0.0,0.0,80,0.00,,,0.00,0,Wunderground v.1.15,2013-02-05 07:36:00,
2013-02-05 02:42:00,31.7,26.2,29.90,East,97,0.0,0.0,80,0.00,,,0.00,0,Wunderground v.1.15,2013-02-05 07:42:00,
2013-02-05 02:48:00,31.7,26.2,29.90,East,97,0.0,0.0,80,0.00,,,0.00,0,Wunderground v.1.15,2013-02-05 07:48:00,
2013-02-05 02:54:00,31.7,26.2,29.90,East,97,0.0,0.0,80,0.00,,,0.00,0,Wunderground v.1.15,2013-02-05 07:54:00,
2013-02-05 03:00:00,31.8,26.3,29.90,East,97,0.0,0.0,80,0.00,,,0.00,0,Wunderground v.1.15,2013-02-05 08:00:00,
2013-02-05 03:06:00,31.8,26.6,29.89,East,97,0.0,0.0,81,0.00,,,0.00,0,Wunderground v.1.15,2013-02-05 08:06:00,
2013-02-05 03:12:00,31.8,26.6,29.89,East,97,0.0,0.0,81,0.00,,,0.00,0,Wunderground v.1.15,2013-02-05 08:12:00,
2013-02-05 03:18:00,31.8,26.6,29.89,East,97,0.0,0.0,81,0.00,,,0.00,0,Wunderground v.1.15,2013-02-05 08:18:00,
2013-02-05 03:24:00,31.9,27.0,29.88,East,97,0.0,0.0,82,0.00,,,0.00,0,Wunderground v.1.15,2013-02-05 08:24:00,
2013-02-05 03:30:00,31.9,27.0,29.89,East,97,0.0,0.0,82,0.00,,,0.00,0,Wunderground v.1.15,2013-02-05 08:30:00,
2013-02-05 03:38:00,31.9,27.0,29.88,East,97,0.0,0.0,82,0.00,,,0.00,0,Wunderground v.1.15,2013-02-05 08:38:00,
2013-02-05 03:44:00,31.9,27.0,29.88,East,97,0.0,0.0,82,0.00,,,0.00,0,Wunderground v.1.15,2013-02-05 08:44:00,
2013-02-05 03:50:00,31.9,27.0,29.87,East,97,0.0,0.0,82,0.00,,,0.00,0,Wunderground v.1.15,2013-02-05 08:50:00,
2013-02-05 03:56:00,31.9,27.0,29.87,East,97,0.0,0.0,82,0.00,,,0.00,0,Wunderground v.1.15,2013-02-05 08:56:00,
2013-02-05 04:02:00,31.9,27.0,29.87,East,97,0.0,0.0,82,0.00,,,0.00,0,Wunderground v.1.15,2013-02-05 09:02:00,
2013-02-05 04:08:00,32.0,27.1,29.87,East,97,0.0,0.0,82,0.00,,,0.00,0,Wunderground v.1.15,2013-02-05 09:08:00,
2013-02-05 04:14:00,32.2,27.3,29.86,East,97,0.0,0.0,82,0.00,,,0.00,0,Wunderground v.1.15,2013-02-05 09:14:00,
2013-02-05 04:20:00,32.4,27.8,29.86,East,97,0.0,0.0,83,0.00,,,0.00,0,Wunderground v.1.15,2013-02-05 09:20:00,
2013-02-05 04:26:00,32.6,27.7,29.86,East,97,0.0,0.0,82,0.00,,,0.00,0,Wunderground v.1.15,2013-02-05 09:26:00,
2013-02-05 04:32:00,32.8,27.9,29.86,East,97,0.0,0.0,82,0.00,,,0.00,0,Wunderground v.1.15,2013-02-05 09:32:00,
2013-02-05 04:38:00,33.0,28.1,29.86,East,97,0.0,1.0,82,0.00,,,0.00,0,Wunderground v.1.15,2013-02-05 09:38:00,
2013-02-05 04:44:00,33.3,28.7,29.86,ESE,109,1.0,2.0,83,0.00,,,0.00,0,Wunderground v.1.15,2013-02-05 09:44:00,
2013-02-05 04:50:00,33.4,28.5,29.88,ESE,109,1.0,1.0,82,0.00,,,0.00,0,Wunderground v.1.15,2013-02-05 09:50:00,
2013-02-05 04:56:00,33.7,29.1,29.88,ESE,109,1.0,2.0,83,0.00,,,0.00,0,Wunderground v.1.15,2013-02-05 09:56:00,
2013-02-05 05:02:00,34.0,29.7,29.88,ESE,109,1.0,1.0,84,0.00,,,0.00,0,Wunderground v.1.15,2013-02-05 10:02:00,
2013-02-05 05:08:00,34.3,30.0,29.88,ESE,109,0.0,1.0,84,0.00,,,0.00,0,Wunderground v.1.15,2013-02-05 10:08:00,
2013-02-05 05:14:00,34.4,30.1,29.88,ESE,109,0.0,0.0,84,0.00,,,0.00,0,Wunderground v.1.15,2013-02-05 10:14:00,
2013-02-05 05:20:00,34.6,30.3,29.88,ESE,109,1.0,1.0,84,0.00,,,0.00,0,Wunderground v.1.15,2013-02-05 10:20:00,
2013-02-05 05:26:00,34.8,30.5,29.87,SSE,160,1.0,2.0,84,0.00,,,0.00,0,Wunderground v.1.15,2013-02-05 10:26:00,
2013-02-05 05:32:00,35.1,31.0,29.87,SSE,160,1.0,1.0,85,0.00,,,0.00,0,Wunderground v.1.15,2013-02-05 10:32:00,
2013-02-05 05:38:00,35.3,31.2,29.88,SSE,160,0.0,2.0,85,0.00,,,0.00,0,Wunderground v.1.15,2013-02-05 10:38:00,
2013-02-05 05:44:00,35.3,31.2,29.88,SSE,160,0.0,0.0,85,0.00,,,0.00,0,Wunderground v.1.15,2013-02-05 10:44:00,
2013-02-05 05:50:00,35.3,30.9,29.88,SSE,160,0.0,0.0,84,0.00,,,0.00,0,Wunderground v.1.15,2013-02-05 10:50:00,
2013-02-05 05:56:00,35.3,30.9,29.88,SSE,160,0.0,0.0,84,0.00,,,0.00,0,Wunderground v.1.15,2013-02-05 10:56:00,
2013-02-05 06:02:00,35.3,30.9,29.88,SSE,160,0.0,0.0,84,0.00,,,0.00,0,Wunderground v.1.15,2013-02-05 11:02:00,
2013-02-05 06:08:00,35.1,30.8,29.88,SSE,160,0.0,0.0,84,0.00,,,0.00,0,Wunderground v.1.15,2013-02-05 11:08:00,
2013-02-05 06:14:00,34.9,30.6,29.88,SSE,160,0.0,0.0,84,0.00,,,0.00,0,Wunderground v.1.15,2013-02-05 11:14:00,
2013-02-05 06:20:00,34.7,30.4,29.89,SSE,160,0.0,0.0,84,0.00,,,0.00,0,Wunderground v.1.15,2013-02-05 11:20:00,
2013-02-05 06:26:00,34.5,30.2,29.88,SSE,160,0.0,0.0,84,0.00,,,0.00,0,Wunderground v.1.15,2013-02-05 11:26:00,
2013-02-05 06:32:00,34.2,29.9,29.88,SSE,160,0.0,0.0,84,0.00,,,0.00,0,Wunderground v.1.15,2013-02-05 11:32:00,
2013-02-05 06:38:00,34.0,30.0,29.88,SSE,160,0.0,0.0,85,0.00,,,0.00,0,Wunderground v.1.15,2013-02-05 11:38:00,
2013-02-05 06:44:00,33.7,29.7,29.88,SSE,160,0.0,0.0,85,0.00,,,0.00,0,Wunderground v.1.15,2013-02-05 11:44:00,
2013-02-05 06:50:00,33.4,29.7,29.88,SSE,160,0.0,0.0,86,0.00,,,0.00,0,Wunderground v.1.15,2013-02-05 11:50:00,
2013-02-05 06:56:00,33.2,29.5,29.89,SSE,160,0.0,0.0,86,0.00,,,0.00,0,Wunderground v.1.15,2013-02-05 11:56:00,
2013-02-05 07:02:00,33.0,29.3,29.89,SSE,160,0.0,0.0,86,0.00,,,0.00,0,Wunderground v.1.15,2013-02-05 12:02:00,
2013-02-05 07:08:00,32.9,29.5,29.89,SSE,160,0.0,0.0,87,0.00,,,0.00,0,Wunderground v.1.15,2013-02-05 12:08:00,
2013-02-05 07:14:00,32.8,29.4,29.89,SSE,160,0.0,0.0,87,0.00,,,0.00,5,Wunderground v.1.15,2013-02-05 12:14:00,
2013-02-05 07:20:00,32.7,29.3,29.89,SSE,160,0.0,0.0,87,0.00,,,0.00,9,Wunderground v.1.15,2013-02-05 12:20:00,
2013-02-05 07:26:00,32.6,29.2,29.90,SSE,160,0.0,0.0,87,0.00,,,0.00,12,Wunderground v.1.15,2013-02-05 12:26:00,
2013-02-05 07:32:00,32.5,29.1,29.90,SSE,160,0.0,0.0,87,0.00,,,0.00,21,Wunderground v.1.15,2013-02-05 12:32:00,
2013-02-05 07:38:00,32.3,29.1,29.90,SSE,160,0.0,2.0,88,0.00,,,0.00,26,Wunderground v.1.15,2013-02-05 12:38:00,
2013-02-05 07:44:00,32.2,29.0,29.90,SSE,160,0.0,0.0,88,0.00,,,0.00,30,Wunderground v.1.15,2013-02-05 12:44:00,
2013-02-05 07:50:00,32.2,29.0,29.90,SSE,160,0.0,0.0,88,0.00,,,0.00,28,Wunderground v.1.15,2013-02-05 12:50:00,
2013-02-05 07:56:00,32.3,29.1,29.90,SSE,160,0.0,0.0,88,0.00,,,0.00,40,Wunderground v.1.15,2013-02-05 12:56:00,
2013-02-05 08:02:00,32.4,29.5,29.90,SSE,160,0.0,0.0,89,0.00,,,0.00,58,Wunderground v.1.15,2013-02-05 13:02:00,
2013-02-05 08:08:00,32.5,29.6,29.90,SSE,160,0.0,0.0,89,0.00,,,0.00,39,Wunderground v.1.15,2013-02-05 13:08:00,
2013-02-05 08:14:00,32.6,29.7,29.91,SSE,160,0.0,0.0,89,0.00,,,0.00,40,Wunderground v.1.15,2013-02-05 13:14:00,
2013-02-05 08:20:00,32.8,29.9,29.91,SSE,160,0.0,0.0,89,0.00,,,0.00,63,Wunderground v.1.15,2013-02-05 13:20:00,
2013-02-05 08:26:00,33.0,30.1,29.91,SSE,160,0.0,0.0,89,0.00,,,0.00,88,Wunderground v.1.15,2013-02-05 13:26:00,
2013-02-05 08:32:00,33.3,30.4,29.91,SSE,160,0.0,0.0,89,0.00,,,0.00,91,Wunderground v.1.15,2013-02-05 13:32:00,
2013-02-05 08:38:00,33.5,30.6,29.92,SSE,160,0.0,0.0,89,0.00,,,0.00,69,Wunderground v.1.15,2013-02-05 13:38:00,
2013-02-05 08:44:00,33.9,31.0,29.92,SSE,160,0.0,0.0,89,0.00,,,0.00,54,Wunderground v.1.15,2013-02-05 13:44:00,
2013-02-05 08:50:00,34.1,30.9,29.92,SSE,160,0.0,0.0,88,0.00,,,0.00,88,Wunderground v.1.15,2013-02-05 13:50:00,
2013-02-05 08:56:00,34.2,30.7,29.92,SSE,159,1.0,2.0,87,0.00,,,0.00,83,Wunderground v.1.15,2013-02-05 13:56:00,
2013-02-05 09:02:00,34.4,30.6,29.91,SSE,159,1.0,2.0,86,0.00,,,0.00,120,Wunderground v.1.15,2013-02-05 14:02:00,
2013-02-05 09:08:00,34.5,30.5,29.91,SSE,159,0.0,2.0,85,0.00,,,0.00,104,Wunderground v.1.15,2013-02-05 14:08:00,
2013-02-05 09:14:00,34.7,30.4,29.92,SSE,159,0.0,1.0,84,0.00,,,0.00,149,Wunderground v.1.15,2013-02-05 14:14:00,
2013-02-05 09:20:00,35.0,30.4,29.92,SSE,159,0.0,1.0,83,0.00,,,0.00,91,Wunderground v.1.15,2013-02-05 14:20:00,
2013-02-05 09:26:00,35.1,30.2,29.92,SSE,159,1.0,1.0,82,0.00,,,0.00,102,Wunderground v.1.15,2013-02-05 14:26:00,
2013-02-05 09:32:00,35.3,30.1,29.92,SSE,159,1.0,1.0,81,0.00,,,0.00,181,Wunderground v.1.15,2013-02-05 14:32:00,
2013-02-05 09:38:00,35.6,30.0,29.91,SSE,158,1.0,1.0,80,0.00,,,0.00,134,Wunderground v.1.15,2013-02-05 14:38:00,
2013-02-05 09:44:00,36.1,30.5,29.91,SSE,158,1.0,1.0,80,0.00,,,0.00,216,Wunderground v.1.15,2013-02-05 14:44:00,
2013-02-05 09:50:00,36.5,30.6,29.91,SSE,158,0.0,0.0,79,0.00,,,0.00,128,Wunderground v.1.15,2013-02-05 14:50:00,
2013-02-05 09:58:00,37.0,30.8,29.92,SSE,158,0.0,1.0,78,0.00,,,0.00,185,Wunderground v.1.15,2013-02-05 14:58:00,
2013-02-05 10:04:00,37.3,30.7,29.92,NNW,343,0.0,1.0,77,0.00,,,0.00,139,Wunderground v.1.15,2013-02-05 15:04:00,
2013-02-05 10:10:00,37.5,30.9,29.92,NNW,343,0.0,1.0,77,0.00,,,0.00,165,Wunderground v.1.15,2013-02-05 15:10:00,
2013-02-05 10:16:00,37.7,31.1,29.92,NNW,343,0.0,2.0,77,0.00,,,0.00,199,Wunderground v.1.15,2013-02-05 15:16:00,
2013-02-05 10:22:00,37.7,30.8,29.93,NE,42,1.0,1.0,76,0.00,,,0.00,148,Wunderground v.1.15,2013-02-05 15:22:00,
2013-02-05 10:28:00,37.7,30.5,29.93,NE,42,0.0,1.0,75,0.00,,,0.00,107,Wunderground v.1.15,2013-02-05 15:28:00,
2013-02-05 10:34:00,37.9,30.7,29.92,NE,42,0.0,0.0,75,0.00,,,0.00,234,Wunderground v.1.15,2013-02-05 15:34:00,
2013-02-05 10:40:00,38.3,31.1,29.93,NE,42,0.0,0.0,75,0.00,,,0.00,262,Wunderground v.1.15,2013-02-05 15:40:00,
2013-02-05 10:46:00,38.8,31.2,29.93,NE,42,0.0,1.0,74,0.00,,,0.00,250,Wunderground v.1.15,2013-02-05 15:46:00,
2013-02-05 10:52:00,39.1,31.2,29.93,NE,42,0.0,0.0,73,0.00,,,0.00,178,Wunderground v.1.15,2013-02-05 15:52:00,
2013-02-05 10:58:00,39.4,31.5,29.92,NE,42,0.0,0.0,73,0.00,,,0.00,137,Wunderground v.1.15,2013-02-05 15:58:00,
2013-02-05 11:04:00,39.7,31.4,29.92,NE,42,0.0,0.0,72,0.00,,,0.00,130,Wunderground v.1.15,2013-02-05 16:04:00,
2013-02-05 11:10:00,40.0,31.4,29.92,NE,42,0.0,0.0,71,0.00,,,0.00,109,Wunderground v.1.15,2013-02-05 16:10:00,
2013-02-05 11:16:00,40.2,31.2,29.92,NE,42,0.0,0.0,70,0.00,,,0.00,105,Wunderground v.1.15,2013-02-05 16:16:00,
2013-02-05 11:22:00,40.3,30.9,29.92,NE,42,0.0,0.0,69,0.00,,,0.00,109,Wunderground v.1.15,2013-02-05 16:22:00,
2013-02-05 11:28:00,40.5,30.4,29.91,NE,42,0.0,0.0,67,0.00,,,0.00,116,Wunderground v.1.15,2013-02-05 16:28:00,
2013-02-05 11:34:00,40.6,30.1,29.92,NE,42,0.0,0.0,66,0.00,,,0.00,142,Wunderground v.1.15,2013-02-05 16:34:00,
2013-02-05 11:40:00,40.7,29.8,29.92,NE,42,0.0,0.0,65,0.00,,,0.00,158,Wunderground v.1.15,2013-02-05 16:40:00,
2013-02-05 11:46:00,40.9,29.3,29.92,NE,42,0.0,1.0,63,0.00,,,0.00,167,Wunderground v.1.15,2013-02-05 16:46:00,
2013-02-05 11:52:00,41.1,29.5,29.91,NE,42,0.0,0.0,63,0.00,,,0.00,192,Wunderground v.1.15,2013-02-05 16:52:00,
2013-02-05 11:58:00,41.3,29.3,29.92,NW,311,1.0,1.0,62,0.00,,,0.00,160,Wunderground v.1.15,2013-02-05 16:58:00,
2013-02-05 12:04:00,41.4,29.3,29.91,NNE,24,1.0,4.0,62,0.00,,,0.00,190,Wunderground v.1.15,2013-02-05 17:04:00,
2013-02-05 12:10:00,41.5,29.4,29.90,NNE,13,1.0,2.0,62,0.00,,,0.00,202,Wunderground v.1.15,2013-02-05 17:10:00,
2013-02-05 12:18:00,41.6,29.9,29.90,NNE,32,2.0,2.0,63,0.00,,,0.00,174,Wunderground v.1.15,2013-02-05 17:18:00,
2013-02-05 12:24:00,41.5,30.2,29.91,NE,55,1.0,2.0,64,0.00,,,0.00,127,Wunderground v.1.15,2013-02-05 17:24:00,
2013-02-05 12:30:00,41.4,30.1,29.90,NE,55,1.0,1.0,64,0.00,,,0.00,128,Wunderground v.1.15,2013-02-05 17:30:00,
2013-02-05 12:36:00,41.2,29.9,29.89,NE,44,1.0,3.0,64,0.00,,,0.00,141,Wunderground v.1.15,2013-02-05 17:36:00,
2013-02-05 12:42:00,41.1,29.8,29.89,NE,47,1.0,2.0,64,0.00,,,0.00,165,Wunderground v.1.15,2013-02-05 17:42:00,
2013-02-05 12:48:00,41.2,29.9,29.89,NNE,23,1.0,3.0,64,0.00,,,0.00,179,Wunderground v.1.15,2013-02-05 17:48:00,
2013-02-05 12:54:00,41.2,29.9,29.88,NNE,26,2.0,2.0,64,0.00,,,0.00,167,Wunderground v.1.15,2013-02-05 17:54:00,
2013-02-05 13:00:00,41.3,30.4,29.88,NE,46,1.0,1.0,65,0.00,,,0.00,160,Wunderground v.1.15,2013-02-05 18:00:00,
2013-02-05 13:06:00,41.2,29.5,29.87,ENE,65,2.0,5.0,63,0.00,,,0.00,172,Wunderground v.1.15,2013-02-05 18:06:00,
2013-02-05 13:12:00,41.4,30.5,29.87,SSE,167,2.0,2.0,65,0.00,,,0.00,190,Wunderground v.1.15,2013-02-05 18:12:00,
2013-02-05 13:18:00,41.6,30.7,29.88,SSE,167,0.0,2.0,65,0.00,,,0.00,188,Wunderground v.1.15,2013-02-05 18:18:00,
2013-02-05 13:24:00,41.8,30.9,29.87,SSE,167,0.0,0.0,65,0.00,,,0.00,206,Wunderground v.1.15,2013-02-05 18:24:00,
2013-02-05 13:30:00,42.1,30.4,29.87,ENE,69,0.0,0.0,63,0.00,,,0.00,239,Wunderground v.1.15,2013-02-05 18:30:00,
2013-02-05 13:38:00,42.4,30.3,29.86,SSE,147,1.0,4.0,62,0.00,,,0.00,237,Wunderground v.1.15,2013-02-05 18:38:00,
2013-02-05 13:44:00,43.0,30.1,29.86,ENE,71,1.0,4.0,60,0.00,,,0.00,246,Wunderground v.1.15,2013-02-05 18:44:00,
2013-02-05 13:50:00,43.1,30.1,29.86,ENE,78,1.0,1.0,60,0.00,,,0.00,214,Wunderground v.1.15,2013-02-05 18:50:00,
2013-02-05 13:56:00,43.0,30.1,29.86,NE,34,1.0,5.0,60,0.00,,,0.00,200,Wunderground v.1.15,2013-02-05 18:56:00,
2013-02-05 14:02:00,43.0,30.9,29.86,SSW,204,2.0,2.0,62,0.00,,,0.00,221,Wunderground v.1.15,2013-02-05 19:02:00,
2013-02-05 14:08:00,43.1,31.0,29.86,East,86,1.0,2.0,62,0.00,,,0.00,206,Wunderground v.1.15,2013-02-05 19:08:00,
2013-02-05 14:14:00,43.2,31.1,29.86,SE,136,0.0,1.0,62,0.00,,,0.00,190,Wunderground v.1.15,2013-02-05 19:14:00,
2013-02-05 14:20:00,43.0,30.1,29.87,NNE,19,0.0,0.0,60,0.00,,,0.00,178,Wunderground v.1.15,2013-02-05 19:20:00,
2013-02-05 14:26:00,43.0,30.5,29.87,NNE,19,1.0,1.0,61,0.00,,,0.00,160,Wunderground v.1.15,2013-02-05 19:26:00,
2013-02-05 14:32:00,42.8,29.9,29.86,ENE,63,1.0,1.0,60,0.00,,,0.00,128,Wunderground v.1.15,2013-02-05 19:32:00,
2013-02-05 14:38:00,42.7,30.2,29.87,NE,44,1.0,2.0,61,0.00,,,0.00,127,Wunderground v.1.15,2013-02-05 19:38:00,
2013-02-05 14:44:00,42.3,29.4,29.87,NE,45,2.0,2.0,60,0.00,,,0.00,121,Wunderground v.1.15,2013-02-05 19:44:00,
2013-02-05 14:50:00,42.2,29.3,29.87,NE,40,2.0,2.0,60,0.00,,,0.00,102,Wunderground v.1.15,2013-02-05 19:50:00,
2013-02-05 14:56:00,42.0,29.1,29.87,NNE,29,2.0,2.0,60,0.00,,,0.00,109,Wunderground v.1.15,2013-02-05 19:56:00,
2013-02-05 15:02:00,42.0,30.7,29.87,ENE,73,1.0,1.0,64,0.00,,,0.00,109,Wunderground v.1.15,2013-02-05 20:02:00,
2013-02-05 15:08:00,41.9,32.8,29.87,SE,144,0.0,1.0,70,0.00,,,0.00,116,Wunderground v.1.15,2013-02-05 20:08:00,
2013-02-05 15:14:00,41.8,33.4,29.88,ESE,117,0.0,0.0,72,0.00,,,0.00,111,Wunderground v.1.15,2013-02-05 20:14:00,
2013-02-05 15:20:00,41.4,33.7,29.88,NE,38,1.0,1.0,74,0.00,,,0.00,83,Wunderground v.1.15,2013-02-05 20:20:00,
2013-02-05 15:26:00,41.0,33.7,29.88,North,5,2.0,8.0,75,0.00,,,0.00,79,Wunderground v.1.15,2013-02-05 20:26:00,
2013-02-05 15:32:00,40.5,33.9,29.88,NE,44,2.0,2.0,77,0.00,,,0.00,65,Wunderground v.1.15,2013-02-05 20:32:00,
2013-02-05 15:38:00,40.1,33.5,29.87,NE,46,2.0,2.0,77,0.00,,,0.00,62,Wunderground v.1.15,2013-02-05 20:38:00,
2013-02-05 15:44:00,39.7,33.4,29.87,NNE,29,2.0,6.0,78,0.00,,,0.00,81,Wunderground v.1.15,2013-02-05 20:44:00,
2013-02-05 15:50:00,39.6,33.6,29.87,SE,145,1.0,2.0,79,0.00,,,0.00,84,Wunderground v.1.15,2013-02-05 20:50:00,
2013-02-05 15:56:00,39.4,33.4,29.87,ENE,78,2.0,4.0,79,0.00,,,0.00,72,Wunderground v.1.15,2013-02-05 20:56:00,
2013-02-05 16:02:00,39.2,33.5,29.87,WSW,237,2.0,2.0,80,0.00,,,0.00,74,Wunderground v.1.15,2013-02-05 21:02:00,
2013-02-05 16:08:00,39.2,33.9,29.86,NE,50,0.0,2.0,81,0.00,,,0.00,77,Wunderground v.1.15,2013-02-05 21:08:00,
2013-02-05 16:14:00,39.1,33.8,29.86,NE,34,0.0,2.0,81,0.00,,,0.00,70,Wunderground v.1.15,2013-02-05 21:14:00,
2013-02-05 16:20:00,38.9,33.9,29.86,ENE,57,1.0,2.0,82,0.00,,,0.00,62,Wunderground v.1.15,2013-02-05 21:20:00,
2013-02-05 16:26:00,38.6,33.6,29.86,East,101,2.0,3.0,82,0.00,,,0.00,63,Wunderground v.1.15,2013-02-05 21:26:00,
2013-02-05 16:32:00,38.4,33.4,29.87,NE,52,1.0,1.0,82,0.00,,,0.00,56,Wunderground v.1.15,2013-02-05 21:32:00,
2013-02-05 16:38:00,38.3,33.3,29.87,NE,52,1.0,2.0,82,0.00,,,0.00,39,Wunderground v.1.15,2013-02-05 21:38:00,
2013-02-05 16:44:00,38.0,33.3,29.87,NE,54,2.0,4.0,83,0.00,,,0.00,33,Wunderground v.1.15,2013-02-05 21:44:00,
2013-02-05 16:50:00,37.8,33.1,29.87,ENE,69,2.0,2.0,83,0.00,,,0.00,30,Wunderground v.1.15,2013-02-05 21:50:00,
2013-02-05 16:56:00,37.7,33.0,29.87,ENE,61,1.0,2.0,83,0.00,,,0.00,21,Wunderground v.1.15,2013-02-05 21:56:00,
2013-02-05 17:02:00,37.5,32.8,29.87,ENE,61,0.0,0.0,83,0.00,,,0.00,12,Wunderground v.1.15,2013-02-05 22:02:00,
2013-02-05 17:08:00,37.4,33.0,29.87,ENE,61,0.0,1.0,84,0.00,,,0.00,7,Wunderground v.1.15,2013-02-05 22:08:00,
2013-02-05 17:14:00,37.3,32.9,29.87,ENE,61,0.0,1.0,84,0.00,,,0.00,0,Wunderground v.1.15,2013-02-05 22:14:00,
2013-02-05 17:20:00,37.2,32.8,29.88,ENE,61,0.0,0.0,84,0.00,,,0.00,0,Wunderground v.1.15,2013-02-05 22:20:00,
2013-02-05 17:26:00,37.1,32.7,29.88,SSE,158,0.0,1.0,84,0.00,,,0.00,0,Wunderground v.1.15,2013-02-05 22:26:00,
2013-02-05 17:32:00,37.0,32.6,29.88,NNE,31,1.0,2.0,84,0.00,,,0.00,0,Wunderground v.1.15,2013-02-05 22:32:00,
2013-02-05 17:38:00,37.0,32.9,29.88,NNE,31,1.0,2.0,85,0.00,,,0.00,0,Wunderground v.1.15,2013-02-05 22:38:00,
2013-02-05 17:44:00,36.9,32.8,29.88,NNE,31,0.0,1.0,85,0.00,,,0.00,0,Wunderground v.1.15,2013-02-05 22:44:00,
2013-02-05 17:50:00,36.8,32.7,29.88,NE,51,0.0,0.0,85,0.00,,,0.00,0,Wunderground v.1.15,2013-02-05 22:50:00,
2013-02-05 17:56:00,36.8,33.0,29.88,ENE,75,0.0,1.0,86,0.00,,,0.00,0,Wunderground v.1.15,2013-02-05 22:56:00,
2013-02-05 18:02:00,36.7,32.9,29.88,NNE,33,0.0,0.0,86,0.00,,,0.00,0,Wunderground v.1.15,2013-02-05 23:02:00,
2013-02-05 18:08:00,36.6,32.8,29.88,NNE,33,0.0,0.0,86,0.00,,,0.00,0,Wunderground v.1.15,2013-02-05 23:08:00,
2013-02-05 18:14:00,36.5,32.7,29.88,NNE,33,0.0,0.0,86,0.00,,,0.00,0,Wunderground v.1.15,2013-02-05 23:14:00,
2013-02-05 18:20:00,36.4,32.9,29.88,East,86,0.0,0.0,87,0.00,,,0.00,0,Wunderground v.1.15,2013-02-05 23:20:00,
2013-02-05 18:26:00,36.4,32.9,29.88,East,86,0.0,0.0,87,0.00,,,0.00,0,Wunderground v.1.15,2013-02-05 23:26:00,
2013-02-05 18:32:00,36.3,32.8,29.88,East,86,0.0,0.0,87,0.00,,,0.00,0,Wunderground v.1.15,2013-02-05 23:32:00,
2013-02-05 18:38:00,36.2,32.7,29.88,East,86,0.0,0.0,87,0.00,,,0.00,0,Wunderground v.1.15,2013-02-05 23:38:00,
2013-02-05 18:44:00,36.0,32.8,29.89,East,86,0.0,0.0,88,0.00,,,0.00,0,Wunderground v.1.15,2013-02-05 23:44:00,
2013-02-05 18:50:00,36.0,32.8,29.89,East,86,0.0,0.0,88,0.00,,,0.00,0,Wunderground v.1.15,2013-02-05 23:50:00,
2013-02-05 18:56:00,35.9,32.7,29.88,East,86,0.0,0.0,88,0.00,,,0.00,0,Wunderground v.1.15,2013-02-05 23:56:00,
2013-02-05 19:02:00,35.9,32.7,29.88,East,86,0.0,0.0,88,0.00,,,0.00,0,Wunderground v.1.15,2013-02-06 00:02:00,
2013-02-05 19:08:00,35.8,32.6,29.88,East,86,0.0,0.0,88,0.00,,,0.00,0,Wunderground v.1.15,2013-02-06 00:08:00,
2013-02-05 19:14:00,35.7,32.5,29.88,East,86,0.0,0.0,88,0.00,,,0.00,0,Wunderground v.1.15,2013-02-06 00:14:00,
2013-02-05 19:20:00,35.5,32.3,29.87,East,86,0.0,0.0,88,0.00,,,0.00,0,Wunderground v.1.15,2013-02-06 00:20:00,
2013-02-05 19:26:00,35.4,32.2,29.87,East,86,0.0,0.0,88,0.00,,,0.00,0,Wunderground v.1.15,2013-02-06 00:26:00,
2013-02-05 19:32:00,35.3,32.4,29.88,East,86,0.0,0.0,89,0.00,,,0.00,0,Wunderground v.1.15,2013-02-06 00:32:00,
2013-02-05 19:38:00,35.2,32.3,29.88,East,86,0.0,0.0,89,0.00,,,0.00,0,Wunderground v.1.15,2013-02-06 00:38:00,
2013-02-05 19:44:00,35.1,32.2,29.88,East,86,0.0,0.0,89,0.00,,,0.00,0,Wunderground v.1.15,2013-02-06 00:44:00,
2013-02-05 19:50:00,35.0,32.1,29.88,East,86,0.0,0.0,89,0.00,,,0.00,0,Wunderground v.1.15,2013-02-06 00:50:00,
2013-02-05 19:56:00,35.0,32.1,29.89,East,86,0.0,0.0,89,0.00,,,0.00,0,Wunderground v.1.15,2013-02-06 00:56:00,
2013-02-05 20:02:00,34.9,32.0,29.89,East,86,0.0,0.0,89,0.00,,,0.00,0,Wunderground v.1.15,2013-02-06 01:02:00,
2013-02-05 20:08:00,34.8,31.9,29.89,East,86,0.0,0.0,89,0.00,,,0.00,0,Wunderground v.1.15,2013-02-06 01:08:00,
2013-02-05 20:14:00,34.7,31.8,29.89,East,86,0.0,0.0,89,0.00,,,0.00,0,Wunderground v.1.15,2013-02-06 01:14:00,
2013-02-05 20:20:00,34.6,32.0,29.90,East,86,0.0,0.0,90,0.00,,,0.00,0,Wunderground v.1.15,2013-02-06 01:20:00,
2013-02-05 20:26:00,34.5,31.9,29.89,East,86,0.0,0.0,90,0.00,,,0.00,0,Wunderground v.1.15,2013-02-06 01:26:00,
2013-02-05 20:32:00,34.5,31.9,29.89,East,86,0.0,0.0,90,0.00,,,0.00,0,Wunderground v.1.15,2013-02-06 01:32:00,
2013-02-05 20:38:00,34.4,31.8,29.89,East,86,0.0,0.0,90,0.00,,,0.00,0,Wunderground v.1.15,2013-02-06 01:38:00,
2013-02-05 20:44:00,34.4,31.8,29.89,East,86,0.0,0.0,90,0.00,,,0.00,0,Wunderground v.1.15,2013-02-06 01:44:00,
2013-02-05 20:50:00,34.4,31.8,29.89,East,86,0.0,0.0,90,0.00,,,0.00,0,Wunderground v.1.15,2013-02-06 01:50:00,
2013-02-05 20:56:00,34.4,31.8,29.89,East,86,0.0,0.0,90,0.00,,,0.00,0,Wunderground v.1.15,2013-02-06 01:56:00,
2013-02-05 21:02:00,34.5,31.9,29.89,East,86,0.0,0.0,90,0.00,,,0.00,0,Wunderground v.1.15,2013-02-06 02:02:00,
2013-02-05 21:08:00,34.4,32.0,29.90,East,86,0.0,0.0,91,0.00,,,0.00,0,Wunderground v.1.15,2013-02-06 02:08:00,
2013-02-05 21:14:00,34.4,32.0,29.90,East,86,0.0,0.0,91,0.00,,,0.00,0,Wunderground v.1.15,2013-02-06 02:14:00,
2013-02-05 21:20:00,34.4,32.0,29.90,East,86,0.0,0.0,91,0.00,,,0.00,0,Wunderground v.1.15,2013-02-06 02:20:00,
2013-02-05 21:28:00,34.4,32.0,29.90,East,86,0.0,0.0,91,0.00,,,0.00,0,Wunderground v.1.15,2013-02-06 02:28:00,
2013-02-05 21:34:00,34.4,32.0,29.90,East,86,0.0,0.0,91,0.00,,,0.00,0,Wunderground v.1.15,2013-02-06 02:34:00,
2013-02-05 21:40:00,34.4,32.0,29.90,East,86,0.0,0.0,91,0.00,,,0.00,0,Wunderground v.1.15,2013-02-06 02:40:00,
2013-02-05 21:46:00,34.3,31.9,29.90,East,86,0.0,0.0,91,0.00,,,0.00,0,Wunderground v.1.15,2013-02-06 02:46:00,
2013-02-05 21:52:00,34.3,31.9,29.90,East,86,0.0,0.0,91,0.00,,,0.00,0,Wunderground v.1.15,2013-02-06 02:52:00,
2013-02-05 21:58:00,34.3,31.9,29.90,East,86,0.0,0.0,91,0.00,,,0.00,0,Wunderground v.1.15,2013-02-06 02:58:00,
2013-02-05 22:04:00,34.2,31.8,29.90,East,86,0.0,0.0,91,0.00,,,0.00,0,Wunderground v.1.15,2013-02-06 03:04:00,
2013-02-05 22:10:00,34.2,31.8,29.90,East,86,0.0,0.0,91,0.00,,,0.00,0,Wunderground v.1.15,2013-02-06 03:10:00,
2013-02-05 22:16:00,34.2,31.8,29.90,East,86,0.0,1.0,91,0.00,,,0.00,0,Wunderground v.1.15,2013-02-06 03:16:00,
2013-02-05 22:22:00,34.2,32.1,29.90,East,86,0.0,0.0,92,0.00,,,0.00,0,Wunderground v.1.15,2013-02-06 03:22:00,
2013-02-05 22:28:00,34.1,32.0,29.90,East,86,0.0,0.0,92,0.00,,,0.00,0,Wunderground v.1.15,2013-02-06 03:28:00,
2013-02-05 22:34:00,34.2,32.1,29.90,East,86,0.0,1.0,92,0.00,,,0.00,0,Wunderground v.1.15,2013-02-06 03:34:00,
2013-02-05 22:40:00,34.2,32.1,29.90,East,86,0.0,0.0,92,0.00,,,0.00,0,Wunderground v.1.15,2013-02-06 03:40:00,
2013-02-05 22:46:00,34.2,32.1,29.90,East,86,0.0,0.0,92,0.00,,,0.00,0,Wunderground v.1.15,2013-02-06 03:46:00,
2013-02-05 22:52:00,34.2,32.1,29.90,East,86,0.0,0.0,92,0.00,,,0.00,0,Wunderground v.1.15,2013-02-06 03:52:00,
2013-02-05 22:58:00,34.2,32.1,29.90,East,86,0.0,0.0,92,0.00,,,0.00,0,Wunderground v.1.15,2013-02-06 03:58:00,
2013-02-05 23:04:00,34.2,32.1,29.90,East,86,0.0,0.0,92,0.00,,,0.00,0,Wunderground v.1.15,2013-02-06 04:04:00,
2013-02-05 23:10:00,34.2,32.1,29.90,East,86,0.0,0.0,92,0.00,,,0.00,0,Wunderground v.1.15,2013-02-06 04:10:00,
2013-02-05 23:16:00,34.3,32.2,29.90,East,86,0.0,0.0,92,0.00,,,0.00,0,Wunderground v.1.15,2013-02-06 04:16:00,
2013-02-05 23:22:00,34.3,32.2,29.90,East,86,0.0,0.0,92,0.00,,,0.00,0,Wunderground v.1.15,2013-02-06 04:22:00,
2013-02-05 23:28:00,34.2,32.1,29.90,East,86,0.0,2.0,92,0.00,,,0.00,0,Wunderground v.1.15,2013-02-06 04:28:00,
2013-02-05 23:34:00,34.2,32.1,29.90,East,86,0.0,0.0,92,0.00,,,0.00,0,Wunderground v.1.15,2013-02-06 04:34:00,
2013-02-05 23:40:00,34.1,32.0,29.90,East,86,0.0,0.0,92,0.00,,,0.00,0,Wunderground v.1.15,2013-02-06 04:40:00,
2013-02-05 23:46:00,34.0,31.9,29.91,East,86,0.0,0.0,92,0.00,,,0.00,0,Wunderground v.1.15,2013-02-06 04:46:00,
2013-02-05 23:52:00,34.0,31.9,29.91,East,86,0.0,0.0,92,0.00,,,0.00,0,Wunderground v.1.15,2013-02-06 04:52:00,
2013-02-05 23:58:00,34.0,31.9,29.90,East,86,0.0,0.0,92,0.00,,,0.00,0,Wunderground v.1.15,2013-02-06 04:58:00,